Helicity
96 101 123 123 124 110 100 112 127 133 128 114 100 103 100 88 87 89 107 107 84 69 103 116 115 116 123 127 149 162 145 117
83 75 107 99 95 88 82 88 101 112 119 105 100 109 101 92 96 105 111 111 101 74 89 114 107 133 135 150 161 173 164 147
68 56 80 77 69 65 69 68 85 98 114 110 122 115 107 110 111 113 114 112 112 96 87 106 100 111 126 156 180 181 190 172
57 49 48 50 49 65 78 66 91 115 120 134 132 121 122 119 121 125 115 108 109 110 94 104 103 100 122 160 174 193 186 170
68 62 47 38 35 56 79 86 99 114 123 138 127 138 144 145 157 145 126 112 116 125 118 112 105 96 120 166 185 200 198 189
109 105 77 42 40 54 89 98 104 111 113 122 141 141 152 154 143 137 125 111 106 107 119 118 109 107 115 139 153 183 213 195
140 151 98 78 71 64 80 88 101 99 115 125 143 138 124 130 132 140 139 135 113 115 119 108 109 112 128 140 173 194 194 198
177 158 126 120 116 107 107 94 94 101 114 134 144 143 134 144 144 147 150 145 144 143 147 155 145 151 128 153 177 221 230 226
150 151 185 163 135 131 136 111 92 88 87 89 103 134 140 151 147 168 175 206 201 212 201 202 190 183 171 182 187 213 245 263
145 159 185 179 139 127 131 110 109 84 74 81 89 105 129 141 149 172 183 201 221 223 256 274 233 217 217 237 256 267 261 263
130 134 161 190 161 154 144 134 97 70 59 69 81 103 129 154 153 140 179 223 235 240 232 265 307 307 252 269 280 312 308 340
253 218 193 198 196 191 180 157 98 71 58 60 85 110 122 138 149 147 189 242 242 293 286 326 317 311 308 371 325 332 339 373
333 302 308 275 248 235 209 147 102 76 65 73 76 87 94 111 126 132 184 221 228 254 282 278 351 401 416 412 448 492 404 438
442 407 368 342 299 291 248 223 192 152 112 99 89 90 101 139 142 156 183 210 238 263 272 299 347 404 340 466 445 515 440 479
475 458 452 436 390 332 291 234 190 172 143 115 130 166 170 179 195 214 233 240 252 223 235 250 270 332 334 360 297 316 556 616
451 412 377 346 298 281 255 228 209 141 102 87 102 118 130 154 166 179 201 228 243 220 183 180 198 213 246 293 375 325 451 620
385 376 339 301 275 226 176 137 62 40 56 67 65 74 90 104 125 158 188 201 222 231 239 192 181 197 226 244 217 222 495 463
372 350 295 243 181 120 81 48 24 33 25 20 19 56 92 117 134 141 132 163 204 220 207 216 247 234 218 224 303 353 415 416
291 250 217 164 134 101 62 36 10 -13 -21 -1 43 85 113 137 162 158 164 167 172 170 233 254 219 204 194 215 230 269 317 327
246 203 169 130 97 47 10 -3 -16 -10 15 65 102 119 115 122 163 164 163 170 188 218 282 274 239 217 155 155 170 185 185 261
Wind_Speed
16 16 12 10 11 16 17 14 13 13 10 10 8 9 10 12 13 15 17 19 21 21 22 22 21 22 21 20 19 19 20 21
13 15 13 10 9 13 14 11 12 12 11 8 6 5 7 8 10 11 14 15 17 18 19 21 18 17 16 16 16 16 16 17
11 13 14 11 9 10 11 7 10 10 6 4 2 2 3 4 7 11 14 17 18 18 18 22 19 14 13 11 11 11 11 13
8 10 13 13 10 8 6 4 4 3 2 1 1 3 5 7 10 14 17 21 20 18 20 24 24 18 17 11 9 6 6 7
6 8 11 12 13 10 6 5 3 4 4 5 8 13 14 15 18 20 23 22 25 24 22 24 25 19 15 10 7 5 4 2
4 5 7 9 12 12 10 8 6 5 4 5 8 13 16 19 22 25 27 30 30 29 30 27 29 28 22 19 15 11 8 5
4 1 3 5 8 11 13 12 9 7 10 11 13 15 14 15 19 22 24 28 30 34 36 37 38 35 30 24 20 17 14 12
4 4 3 2 5 8 12 13 15 14 15 15 12 12 14 16 19 21 23 26 30 32 34 34 35 40 41 33 31 29 25 23
3 3 3 2 1 7 11 13 14 17 19 17 14 13 15 18 21 24 25 28 31 34 36 37 39 39 39 38 37 37 35 31
4 3 3 4 4 9 15 17 19 21 20 19 18 18 21 23 26 28 32 34 37 40 43 45 46 45 45 43 42 41 41 41
11 9 5 3 7 13 19 22 24 25 24 23 24 25 27 31 35 40 42 43 45 47 51 53 57 56 55 54 50 48 47 46
17 17 12 10 11 17 23 24 29 31 33 33 34 33 33 37 42 46 48 50 53 54 57 58 61 61 62 63 61 58 54 54
19 15 13 11 15 19 23 27 30 34 37 42 45 46 46 49 52 55 54 56 61 60 63 69 68 63 67 69 67 66 68 62
14 11 11 14 17 22 26 28 32 36 41 46 48 49 53 56 58 62 65 69 73 76 75 78 77 63 73 74 85 80 73 70
14 14 15 18 19 22 27 32 39 44 51 55 57 61 63 66 70 73 77 78 78 76 76 80 85 77 72 73 74 87 81 72
15 15 18 22 25 30 36 42 49 54 59 63 68 70 74 77 81 84 86 87 87 83 77 78 77 87 81 82 83 78 85 91
14 16 23 29 34 38 42 48 53 59 66 73 77 80 83 85 87 88 89 87 84 84 83 82 81 85 87 89 92 90 84 88
16 21 27 30 34 39 46 54 62 70 76 81 84 85 88 91 92 92 91 91 90 89 88 86 86 88 90 92 94 95 101 99
20 24 30 33 39 47 55 62 68 75 79 84 91 96 100 99 93 96 96 94 93 92 89 88 88 93 95 98 97 98 91 89
22 28 33 39 49 56 60 66 73 76 82 88 92 95 98 97 98 98 98 98 98 92 90 92 93 94 90 83 83 83 81 77
Wind_Direction
51 46 67 100 123 138 144 142 136 128 121 113 91 68 61 58 52 47 46 37 38 33 28 33 41 36 50 50 51 47 47 40
49 46 49 78 106 134 144 146 143 139 135 127 106 57 77 71 62 39 38 36 31 32 27 21 29 34 49 54 55 54 55 48
49 48 44 68 86 125 140 149 152 150 142 138 92 30 57 39 19 3 1 2 8 12 10 4 12 24 22 40 51 56 56 46
55 56 44 59 54 94 116 141 168 198 189 228 221 305 326 335 333 333 337 342 352 356 352 346 348 356 351 354 354 21 38 45
47 50 45 58 54 63 48 15 332 289 276 281 294 308 314 315 318 321 323 328 332 334 339 336 334 338 336 330 320 318 327 13
14 44 54 55 44 36 26 9 357 331 297 285 292 301 308 312 312 313 314 316 319 323 322 323 320 320 317 312 306 295 284 284
296 8 74 41 45 24 18 11 4 346 321 307 307 308 304 306 306 307 307 310 310 311 314 313 312 310 307 298 288 277 273 278
286 211 174 70 46 18 5 1 352 342 330 321 317 313 307 306 305 304 303 303 304 302 303 303 304 304 300 292 286 282 275 276
180 209 206 215 67 2 4 4 353 343 334 333 329 324 321 317 312 309 304 302 303 305 306 300 298 297 291 288 285 279 273 269
338 323 267 281 307 337 341 346 345 342 341 341 334 328 323 319 316 314 313 309 305 302 301 300 298 294 292 283 277 274 269 267
319 313 306 309 324 328 329 332 333 336 338 336 332 327 322 316 313 312 312 308 305 302 299 296 295 293 289 289 282 274 269 268
321 317 323 330 331 329 329 330 330 329 328 327 328 328 327 325 322 318 313 308 305 302 298 295 291 289 287 285 282 279 274 267
321 322 329 336 335 333 331 329 331 330 330 328 325 326 326 324 322 320 316 309 305 302 299 296 293 290 291 289 283 280 274 268
350 2 12 0 350 342 339 337 332 329 329 328 329 328 327 325 323 321 319 314 310 307 302 298 294 286 288 288 287 283 272 272
347 352 358 360 359 350 342 332 326 324 323 322 323 323 323 321 319 317 314 313 310 308 305 299 295 291 282 283 287 284 283 274
329 339 344 343 342 337 329 323 320 321 320 321 320 320 318 318 317 315 312 310 307 306 305 301 297 292 288 279 281 287 281 280
324 333 330 330 330 329 326 323 321 321 320 318 318 317 316 315 314 312 310 308 305 302 300 298 295 293 288 287 280 277 279 277
321 322 323 328 331 330 327 323 320 318 318 317 317 318 318 317 316 313 310 306 302 300 297 294 293 291 289 286 281 279 273 272
312 318 319 325 327 325 324 323 321 320 320 319 319 318 317 317 316 314 311 308 304 301 297 294 293 292 290 287 285 281 278 276
310 315 318 322 322 324 324 323 322 322 322 321 319 318 317 317 315 313 311 309 306 302 298 296 295 293 291 289 287 280 276 271